This demonstration page uses our WeatherBlox Daily Observations layout. Learn more.

Left ArrowRight Arrow

39.08367, -84.50855

Hourly Observations for March 23, 2015

Temp ( °F °C ) Dew Point ( °F °C ) Humidity (%) Winds ( mph kmh ) Pressure ( in mb ) Visibility ( mi km ) Precip ( " mm )
12:53 am 00:53 Clear 36 2.2 21 -6.1 55 55 NE 5 7 30.2 1023 10 16.0934 N/A
1:53 am 01:53 Clear 34 1.1 20 -6.7 56 56 NE 6 9 30.21 1023 10 16.0934 N/A
2:53 am 02:53 Mostly Clear 34 1.1 20 -6.7 56 56 NE 10 17 30.22 1023 10 16.0934 N/A
3:53 am 03:53 Partly Cloudy 32 undefined 20 -6.7 61 61 NE 12 19 30.22 1023 10 16.0934 N/A
4:53 am 04:53 Clear 31 -0.6 19 -7.2 61 61 NE 7 11 30.21 1023 10 16.0934 N/A
5:53 am 05:53 Partly Cloudy 31 -0.6 19 -7.2 61 61 NE 7 11 30.22 1023 10 16.0934 N/A
6:53 am 06:53 Clear 30 -1.1 16 -8.9 56 56 NE 7 11 30.24 1024 10 16.0934 N/A
7:53 am 07:53 Sunny 30 -1.1 14 -10 51 51 ENE 7 11 30.25 1024 10 16.0934 N/A
8:53 am 08:53 Sunny 32 undefined 16 -8.9 52 52 ENE 9 15 30.26 1025 10 16.0934 N/A
9:53 am 09:53 Sunny 36 2.2 16 -8.9 44 44 ENE 12 19 30.23 1024 10 16.0934 N/A
10:53 am 10:53 Sunny 39 3.9 17 -8.3 41 41 NE 13 20 30.24 1024 10 16.0934 N/A
11:53 am 11:53 Sunny 43 6.1 17 -8.3 35 35 NE 14 22 30.21 1023 10 16.0934 N/A
12:53 pm 12:53 Mostly Sunny 45 7.2 17 -8.3 33 33 E 7 11 30.2 1023 10 16.0934 N/A
1:53 pm 13:53 Mostly Sunny 48 8.9 16 -8.9 28 28 NE 6 9 30.18 1022 10 16.0934 N/A
2:53 pm 14:53 Mostly Cloudy 49 9.4 17 -8.3 28 28 N 8 13 30.15 1021 10 16.0934 N/A
3:53 pm 15:53 Partly Cloudy 50 10 17 -8.3 27 27 VRB 6 9 30.12 1020 10 16.0934 N/A
4:53 pm 16:53 Cloudy 43 6.1 20 -6.7 40 40 NNE 14 22 30.16 1021 10 16.0934 N/A
5:53 pm 17:53 Cloudy with Light Rain 39 3.9 24 -4.4 55 55 ENE 16 26 30.14 1021 10 16.0934 N/A
6:53 pm 18:53 Cloudy with Light Rain 37 2.8 26 -3.3 65 65 NNE 12 19 30.16 1022 10 16.0934 0.01 0.254
7:53 pm 19:53 Cloudy 35 1.7 26 -3.3 70 70 NNE 13 20 30.19 1022 10 16.0934 0.01 0.254
8:53 pm 20:53 Cloudy 34 1.1 27 -2.8 76 76 NE 14 22 30.2 1023 10 16.0934 N/A
9:53 pm 21:53 Cloudy 33 0.6 27 -2.8 78 78 NE 13 20 30.21 1023 10 16.0934 N/A
10:53 pm 22:53 Cloudy 33 0.6 27 -2.8 78 78 NE 9 15 30.2 1023 10 16.0934 N/A
11:53 pm 23:53 Cloudy 33 0.6 27 -2.8 78 78 NE 12 19 30.21 1023 10 16.0934 N/A

Powered by AerisWeather